Stations météo

réclame
Mon MeteoGroup
Ramstein, Allemagne (10614): Température de l'air & dewpoint: 12.01.2019 13:00:00 - 18.01.2019 13:00:00 (CET)Ramstein, Allemagne (10614): Vitesse du vent & gusts: 12.01.2019 13:00:00 - 18.01.2019 13:00:00 (CET)Ramstein, Allemagne (10614): Direction du vent: 12.01.2019 13:00:00 - 18.01.2019 13:00:00 (CET)Ramstein, Allemagne (10614): reduced air pressure: 12.01.2019 13:00:00 - 18.01.2019 13:00:00 (CET)Ramstein, Allemagne (10614): visibility: 12.01.2019 13:00:00 - 18.01.2019 13:00:00 (CET)Ramstein, Allemagne (10614): Quantités de précipitations: 12.01.2019 13:00:00 - 18.01.2019 13:00:00 (CET)
Date & Time tt [°C] td [°C] ff [km/h] ff [knt] fx [km/h] fx [knt] dd ppp [hPa] vv [km] rr [mm]
18.01.2019 13:00:00 - - - - - - - - - -
18.01.2019 12:00:00 2,4 2,4 13 7 - - W 1021,5 10 -
18.01.2019 11:00:00 1,0 0,0 9 5 - - W 1021,6 10 -
18.01.2019 10:00:00 0,0 -1,0 5 3 - - W 1021,2 10 0,0
18.01.2019 09:00:00 -0,9 -3,0 0 0 - - N 1020,3 10 -
18.01.2019 08:00:00 -1,1 -3,0 0 0 - - N 1019,9 10 -
18.01.2019 07:00:00 -1,0 -3,0 0 0 - - N 1019,2 10 -
18.01.2019 06:00:00 0,5 -1,0 8 4 - - WSW 1018,0 10 -
18.01.2019 05:00:00 0,6 -1,0 11 6 - - W 1017,4 10 -
18.01.2019 04:00:00 0,7 -1,0 15 8 - - WSW 1017,2 10 -
18.01.2019 03:00:00 1,1 -1,0 11 6 - - WSW 1016,6 10 -
18.01.2019 02:00:00 0,9 -1,0 15 8 - - SW 1015,8 10 -
18.01.2019 01:00:00 1,0 -2,0 9 5 - - WSW 1015,1 10 -
18.01.2019 00:00:00 1,5 -1,0 15 8 - - WSW 1014,4 10 -
17.01.2019 23:00:00 1,4 -2,0 18 10 - - WSW 1013,8 10 -
17.01.2019 22:00:00 1,3 1,3 18 10 - - WSW 1013,2 10 -
17.01.2019 21:00:00 1,0 0,0 21 11 - - W - 10 -
17.01.2019 20:00:00 3,0 2,0 16 9 - - WSW 1011,3 10 0,0
17.01.2019 19:00:00 3,0 2,0 15 8 - - WSW 1010,7 10 0,8
17.01.2019 18:00:00 3,0 2,0 18 10 - - SW 1009,6 10 -
17.01.2019 17:00:00 3,0 3,0 26 14 - - W 1008,3 10 0,3
17.01.2019 16:00:00 4,0 4,0 28 15 55 30 WSW - 10 0,5
17.01.2019 15:00:00 6,0 5,0 28 15 52 28 SW - 10 0,3
17.01.2019 14:00:00 6,0 6,0 28 15 54 29 WSW 1005,8 10 0,0
17.01.2019 13:00:00 6,0 5,0 28 15 52 28 WSW 1005,7 10 0,3
17.01.2019 12:00:00 6,0 6,0 34 18 52 28 WSW 1006,1 9 0,3
17.01.2019 11:00:00 6,0 5,0 18 10 - - WSW 1006,8 10 -
17.01.2019 10:00:00 5,0 5,0 21 11 - - WSW 1006,5 10 0,3
17.01.2019 09:00:00 5,5 5,5 16 9 - - W 1006,0 10 0,5
17.01.2019 08:00:00 5,5 5,5 16 9 - - SW 1005,0 10 0,5
17.01.2019 07:00:00 5,5 5,5 15 8 - - SW 1005,4 10 0,8
17.01.2019 06:00:00 5,2 5,2 16 9 - - SW 1005,4 10 0,5
17.01.2019 05:00:00 4,9 4,9 24 13 - - SW 1006,1 10 0,3
17.01.2019 04:00:00 5,0 5,0 18 10 - - SW 1007,1 10 0,0
17.01.2019 03:00:00 5,0 5,0 24 13 - - SW 1007,4 10 -
17.01.2019 02:00:00 5,0 5,0 22 12 - - SW 1007,4 10 -
17.01.2019 01:00:00 5,0 4,9 16 9 - - SW 1007,5 10 -
17.01.2019 00:00:00 4,8 4,7 16 9 - - SW 1007,8 10 -
16.01.2019 23:00:00 4,9 4,6 15 8 - - SW 1007,8 10 -
16.01.2019 22:00:00 5,6 5,0 16 9 - - SW 1008,5 10 -
16.01.2019 21:00:00 5,1 4,4 21 11 - - SW 1008,6 10 -
16.01.2019 20:00:00 5,0 4,1 16 9 - - SW 1009,0 10 -
16.01.2019 19:00:00 4,9 4,3 11 6 - - SW 1008,9 10 -
16.01.2019 18:00:00 4,6 4,5 11 6 - - WSW 1009,5 10 -
16.01.2019 17:00:00 4,8 4,4 9 5 - - WSW 1009,9 10 -
16.01.2019 16:00:00 5,6 4,7 13 7 - - WSW 1010,9 10 -
16.01.2019 15:00:00 6,3 5,1 16 9 - - WSW 1011,2 10 -
16.01.2019 14:00:00 6,0 5,1 11 6 - - SW 1012,2 10 -
16.01.2019 13:00:00 5,6 4,7 15 8 - - SW 1013,3 10 -
16.01.2019 12:00:00 4,9 4,6 13 7 - - SW 1014,3 10 -
16.01.2019 11:00:00 4,4 4,3 15 8 - - SW 1015,4 10 -
16.01.2019 10:00:00 3,8 3,7 13 7 - - SW - 10 -
16.01.2019 09:00:00 3,6 3,5 9 5 - - SSW - 10 -
16.01.2019 08:00:00 3,9 3,8 13 7 - - SW - 10 -
16.01.2019 07:00:00 4,0 3,9 9 5 - - SW - 10 -
16.01.2019 06:00:00 4,2 4,1 15 8 - - SSW 1017,0 10 -
16.01.2019 05:00:00 4,3 4,2 9 5 - - SW 1017,7 10 -
16.01.2019 04:00:00 4,5 4,4 9 5 - - WSW 1018,4 10 -
16.01.2019 03:00:00 4,8 4,7 18 10 - - WSW 1019,1 10 -
16.01.2019 02:00:00 4,9 4,8 13 7 - - WSW 1019,1 10 -
16.01.2019 01:00:00 4,9 4,9 9 5 - - SW 1019,4 10 -
16.01.2019 00:00:00 4,6 4,6 13 7 - - SW 1019,8 10 0,0
15.01.2019 23:00:00 5,0 5,0 15 8 - - WSW 1020,4 10 0,0
15.01.2019 22:00:00 4,7 4,7 11 6 - - WSW 1020,9 10 0,0
15.01.2019 21:00:00 5,0 5,0 16 9 - - SW 1020,9 10 0,0
15.01.2019 20:00:00 5,1 5,1 11 6 - - WSW 1020,9 10 -
15.01.2019 19:00:00 5,2 5,2 15 8 - - WSW 1021,0 10 -
15.01.2019 18:00:00 5,2 5,2 15 8 - - SW 1021,0 10 -
15.01.2019 17:00:00 5,4 5,3 16 9 - - SW 1021,3 10 -
15.01.2019 16:00:00 5,0 5,0 18 10 - - SW 1021,3 10 -
15.01.2019 15:00:00 5,0 5,0 18 10 - - WSW 1021,7 10 -
15.01.2019 14:00:00 5,0 5,0 21 11 - - W 1021,7 10 -
15.01.2019 13:00:00 5,0 5,0 22 12 - - W 1021,9 10 -
15.01.2019 12:00:00 4,6 4,6 15 8 - - WSW 1022,6 10 -
15.01.2019 11:00:00 3,9 3,9 11 6 - - WSW 1023,4 10 -
15.01.2019 10:00:00 3,3 3,3 5 3 - - WSW 1023,4 10 -
15.01.2019 09:00:00 2,8 2,8 9 5 - - WSW 1023,4 10 -
15.01.2019 08:00:00 1,8 0,0 9 5 - - WSW 1022,7 10 -
15.01.2019 07:00:00 1,7 0,0 8 4 - - WNW 1022,8 10 -
15.01.2019 06:00:00 1,4 -1,0 9 5 - - W 1023,2 10 0,0
15.01.2019 05:00:00 1,0 -1,0 0 0 - - N 1023,4 10 -
15.01.2019 04:00:00 0,3 -2,0 5 3 - - W 1023,8 10 -
15.01.2019 03:00:00 1,4 -1,0 9 5 - - W 1023,5 10 -
15.01.2019 02:00:00 1,6 -1,0 13 7 - - W 1023,2 10 -
15.01.2019 01:00:00 2,1 0,0 15 8 - - WSW 1022,6 10 -
15.01.2019 00:00:00 2,1 -1,0 11 6 - - WSW 1022,3 10 -
14.01.2019 23:00:00 1,4 -3,0 13 7 - - W 1022,0 10 -
14.01.2019 22:00:00 2,2 -3,0 5 3 - - SW 1021,6 10 -
14.01.2019 21:00:00 3,0 1,0 9 5 - - W 1021,2 10 -
14.01.2019 20:00:00 3,0 1,0 5 3 - - SW 1020,2 10 -
14.01.2019 19:00:00 3,0 1,0 8 4 - - W 1019,2 10 -
14.01.2019 18:00:00 4,0 2,0 15 8 - - WNW 1018,5 10 -
14.01.2019 17:00:00 4,0 2,0 13 7 - - W 1017,4 10 -
14.01.2019 16:00:00 5,0 2,0 9 5 - - W 1016,0 10 -
14.01.2019 15:00:00 4,0 3,0 9 5 - - SW 1015,8 10 -
14.01.2019 14:00:00 3,0 3,0 5 3 52 28 W 1015,1 10 1,0
14.01.2019 13:00:00 6,0 6,0 26 14 - - NW 1013,9 9 0,0
14.01.2019 12:00:00 6,0 3,0 24 13 - - WSW 1013,2 10 -
14.01.2019 11:00:00 6,0 3,0 24 13 - - WSW 1012,7 10 -
14.01.2019 10:00:00 6,0 3,0 18 10 - - WSW 1012,4 10 -
14.01.2019 09:00:00 5,0 2,0 21 11 - - SW 1011,7 10 -
14.01.2019 08:00:00 5,1 2,0 16 9 - - WSW 1010,7 10 -
14.01.2019 07:00:00 4,7 2,0 15 8 - - WSW 1010,0 10 -
14.01.2019 06:00:00 3,1 0,0 15 8 - - W 1009,4 10 -
14.01.2019 05:00:00 5,3 2,0 18 10 - - WSW 1008,6 10 -
14.01.2019 04:00:00 4,4 1,0 5 3 - - WSW 1008,1 10 -
14.01.2019 03:00:00 3,1 0,0 11 6 - - WSW 1007,4 10 -
14.01.2019 02:00:00 5,0 2,0 15 8 - - W 1006,4 10 -
14.01.2019 01:00:00 6,1 3,0 18 10 - - WNW 1005,9 10 -
14.01.2019 00:00:00 6,3 4,0 22 12 54 29 W 1005,6 10 1,5
13.01.2019 23:00:00 7,6 6,0 24 13 - - NNW 1005,1 10 0,5
13.01.2019 22:00:00 8,2 6,0 18 10 - - WSW 1004,5 10 -
13.01.2019 21:00:00 8,0 8,0 24 13 - - W 1004,9 10 0,5
13.01.2019 20:00:00 9,0 8,0 26 14 - - WSW 1004,4 10 0,3
13.01.2019 19:00:00 9,0 8,0 28 15 - - WSW 1005,1 8 0,3
13.01.2019 18:00:00 9,0 8,0 22 12 - - WSW 1005,1 10 0,3
13.01.2019 17:00:00 8,0 8,0 24 13 - - WSW 1005,9 9 0,0
13.01.2019 16:00:00 8,0 7,0 28 15 - - WSW 1006,2 10 0,0
13.01.2019 15:00:00 8,0 7,0 24 13 - - W 1007,3 10 -
13.01.2019 14:00:00 8,0 7,0 22 12 - - WSW 1007,9 10 -
13.01.2019 13:00:00 8,0 7,0 26 14 - - WSW 1008,6 10 -
13.01.2019 12:00:00 7,0 6,0 21 11 - - WSW 1010,1 10 0,0
13.01.2019 11:00:00 7,0 7,0 28 15 - - WSW 1010,4 9 0,5
13.01.2019 10:00:00 7,0 7,0 18 10 - - WSW 1011,8 9 1,5
13.01.2019 09:00:00 6,6 6,0 16 9 - - SW 1011,8 10 0,0
13.01.2019 08:00:00 6,4 4,0 18 10 - - WSW 1012,3 10 0,0
13.01.2019 07:00:00 6,4 5,0 21 11 - - WSW 1012,9 10 0,0
13.01.2019 06:00:00 6,2 5,0 15 8 - - WSW 1014,3 10 0,0
13.01.2019 05:00:00 6,4 5,0 22 12 - - WSW 1014,3 10 -
13.01.2019 04:00:00 6,2 5,0 22 12 - - WSW 1015,0 10 -
13.01.2019 03:00:00 6,1 5,0 15 8 - - WSW 1015,3 10 -
13.01.2019 02:00:00 6,1 6,1 15 8 - - WSW 1015,3 10 -
13.01.2019 01:00:00 5,9 5,0 11 6 - - WSW 1015,3 10 -
13.01.2019 00:00:00 5,8 5,0 22 12 - - WSW 1015,7 10 0,0
12.01.2019 23:00:00 5,5 5,0 13 7 - - WSW 1016,0 10 0,3
12.01.2019 22:00:00 5,3 4,0 15 8 - - WSW 1016,3 10 0,0
12.01.2019 21:00:00 5,0 3,0 15 8 - - WSW 1016,3 10 0,5
12.01.2019 20:00:00 5,0 5,0 16 9 - - WSW 1017,5 9 0,8
12.01.2019 19:00:00 4,0 4,0 18 10 - - WSW 1018,2 9 0,8
12.01.2019 18:00:00 4,0 4,0 18 10 - - SW 1018,5 9 1,3
12.01.2019 17:00:00 4,0 4,0 18 10 - - WSW 1019,3 8 0,5
12.01.2019 16:00:00 5,0 4,0 18 10 - - SW 1019,5 10 0,0
12.01.2019 15:00:00 5,0 5,0 21 11 - - WSW 1020,5 9 0,0
12.01.2019 14:00:00 4,0 4,0 24 13 - - WSW 1021,7 10 0,3
12.01.2019 13:00:00 5,0 5,0 16 9 - - WSW 1022,9 9 0,0

tt = Température de l'air
td = dewpoint
ff = Vitesse du vent
fx = gusts
dd = Direction du vent
ppp = reduced air pressure
vv = visibility
rr = Quantités de précipitations

stations d'obs. à proximité